Location: General Nathan Twining Observatory
(34.5931°N, 106.8201°W)
Time: 16:33:33
(UTC-07:00)

Daily predictions for brighter satellites

Satellite Brightness Start Highest point End
(mag) Time Altitude Azimuth Time Altitude Azimuth Time Altitude Azimuth
Cosmos 44 3.7 18:18:19 10° NNW 18:23:27 81° WSW 18:28:45 10° SSE
YAOGAN 1 3.0 18:21:00 10° S 18:25:17 70° WSW 18:29:37 10° NNW
MONITOR-E 4.0 18:25:23 10° SSE 18:28:23 79° ENE 18:31:24 10° N
MOS 1 4.3 18:24:34 10° SSE 18:30:12 74° ENE 18:35:52 10° N
Okean 1 3.7 18:28:03 10° N 18:31:48 38° E 18:35:30 10° SSE
CZ-3A R/B 4.2 18:27:46 10° SW 18:32:39 37° SSE 18:52:35 12° E
Cosmos 1072 Rocket 4.5 18:27:25 10° N 18:33:40 74° E 18:39:58 10° SSE
Cosmos 1633 3.5 18:35:50 10° SSW 18:39:18 51° W 18:42:48 10° N
Landsat 4 4.1 18:40:53 10° N 18:44:37 66° WNW 18:48:20 10° SSW
EO 1 Del DPAF 3.3 18:41:22 10° N 18:45:12 84° W 18:49:00 10° SSW
Cosmos 2227 4.2 18:41:07 10° SSW 18:46:50 83° ESE 18:52:33 10° NNE
CZ-4 R/B 4.2 18:44:02 10° SSW 18:47:15 23° W 18:50:25 10° NW
Cosmos 1452 Rocket 4.4 18:42:34 10° NNW 18:47:40 53° WSW 18:52:44 10° S
MOS 1-B Rocket 4.4 18:41:54 10° S 18:48:15 69° WSW 18:53:58 10° NNW
Cosmos 1437 Rocket 2.9 18:48:20 10° S 18:52:24 84° W 18:56:31 10° N
ARGOS Delta rocket 4.4 18:48:26 10° NNE 18:52:37 32° E 18:56:37 10° SSE
Cosmos 1975 Rocket 3.2 18:48:41 10° N 18:53:02 50° E 18:57:22 10° SSE
Meteor 2-4 Rocket 4.5 18:48:31 10° NNE 18:53:28 30° ENE 18:58:17 10° SE
GPS 2-05 Rocket1 2.5 18:50:51 10° WSW 18:54:03 81° S 18:55:55 22° E
Alouette 2 Rocket 3.8 18:52:31 10° SSE 18:55:47 32° E 18:59:04 10° NNE
Cosmos 1891 Rocket 4.4 18:50:37 10° N 18:56:47 90° E 19:02:50 10° S
Meteor 1-18 Rocket 4.5 18:52:31 10° NNW 18:58:04 72° W 19:03:34 10° S
Cosmos 2251 Rocket 4.0 18:53:27 10° SSE 18:58:09 35° E 19:02:52 10° NE
Cosmos 2034 Rocket 4.0 18:52:12 10° N 18:58:36 77° E 19:04:55 10° S
Cosmos 1536 3.7 18:57:07 10° SSE 19:00:33 27° E 19:04:00 10° NNE
Lacrosse 5 rocket 2.1 18:59:00 10° S 19:02:08 26° ESE 19:02:54 24° ESE
SeaSat 1 3.8 19:01:41 19° ENE 19:02:50 20° NE 19:06:22 10° N
SPOT 3 Rocket 4.0 19:00:19 10° S 19:05:28 66° WSW 19:10:40 10° NNW
H-2A R/B 4.0 19:00:44 10° SSW 19:05:28 14° S 19:08:09 10° SE
Cosmos 1816 Rocket 4.5 18:59:33 10° S 19:05:53 72° E 19:12:12 10° N
Cosmos 1184 Rocket 4.0 19:03:38 10° NNE 19:05:47 24° NE 19:05:47 24° NE
Meteor 1-19 Rocket 4.2 19:01:06 10° N 19:06:33 58° E 19:12:03 10° SSE
Cosmos 1943 3.9 19:06:45 10° N 19:11:48 32° ENE 19:14:04 24° ESE
ERS-2 2.0 19:08:14 10° SSE 19:11:55 81° ENE 19:15:36 10° N
Meteor 1-11 Rocket 3.6 19:08:01 10° S 19:13:31 65° E 19:19:09 10° NNE
Resurs 01 Rocket 3.0 19:16:17 21° NE 19:16:17 21° NE 19:18:49 10° NNE
USA 215 3.2 19:14:51 13° NE 19:20:50 67° SE 19:27:19 10° SSW
FREGAT/IRIS 3.4 19:20:30 10° S 19:23:23 50° W 19:26:17 10° NNW
Sakura Rocket 4.3 19:20:06 10° WSW 19:24:59 47° S 19:28:22 26° ESE
HJ-1C 3.4 19:23:36 10° S 19:27:01 81° WSW 19:30:26 10° NNW
H-2A R/B 4.4 19:24:43 10° SSW 19:28:19 36° W 19:31:55 10° NNW
Envisat 2.9 19:24:21 10° SSE 19:29:19 61° ENE 19:34:20 10° N
SL-16 R/B 4.5 19:28:42 10° NW 19:33:14 25° WSW 19:37:46 10° SSW
Meteor 2-9 4.5 19:36:29 10° S 19:41:52 80° E 19:47:22 10° N
OAO 2 Rocket 3.1 19:37:32 10° W 19:42:31 84° S 19:43:27 59° ESE
SJ-6B 3.5 19:43:39 10° S 19:47:20 53° W 19:51:07 10° NNW
CZ-4C R/B 3.2 19:41:42 10° NNW 19:48:47 48° NE 19:50:37 42° E
Cosmos 1110 Rocket 4.4 19:44:51 10° NNW 19:50:06 65° WSW 19:55:20 10° S
Meteor 1-23 Rocket 4.2 19:44:56 10° N 19:50:43 62° E 19:52:08 48° SE
Cosmos 1603 4.2 19:47:07 10° NNW 19:52:39 58° WSW 19:58:06 10° S
CZ-2D R/B 4.1 19:52:18 19° S 19:54:55 51° W 19:58:44 10° NNW
Thor Agena Rocket 4.4 19:52:10 10° N 19:57:02 49° WNW 20:01:51 10° SW
COSMOS 2455 3.9 19:52:28 10° SW 19:58:09 43° WNW 20:03:53 10° NNE
Cosmos 2263 Rocket 2.7 19:52:45 10° SW 19:58:11 57° WNW 20:03:42 10° NNE
Cosmos 2151 Rocket 4.4 19:56:08 10° SSW 20:00:30 52° W 20:04:52 10° N
ATLAS CENTAUR R/B 3.0 20:13:11 10° NNW 20:15:26 31° NNW 20:15:26 31° NNW
Spot 2 Rocket 4.4 20:20:40 40° NNW 20:20:40 40° NNW 20:23:54 10° NNW
Geosat 4.4 20:24:06 59° W 20:24:06 59° W 20:28:42 10° SW
CZ-3C R/B 3.8 20:24:31 10° SW 20:29:40 35° SSE 20:29:40 35° SSE
Cosmos 2279 Rocket 4.1 20:24:14 10° N 20:29:38 68° NNW 20:29:38 68° NNW
SeaSat 1 3.8 20:41:30 36° WNW 20:41:30 36° WNW 20:44:46 10° NW
Lacrosse 5 rocket 4.3 20:38:15 10° W 20:38:39 12° W 20:38:39 12° W
Resurs 01 Rocket 4.2 20:53:52 18° NW 20:53:52 18° NW 20:55:21 10° NW
CZ-4C R/B 4.2 21:30:32 10° NW 21:35:53 34° W 21:35:53 34° W
